Terminal Aerodrome Forecast
Issued by NWS Sterling, VA

Current Version | Previous Version | Graphics & Text | Print | Product List | Glossary On
Versions: 1 2 3 4 5 6 7 8 9 10 11 12 13 14 15 16 17 18 19 20 21
000
FTUS41 KLWX 201100
TAFDCA
TAF
KDCA 201135Z 2012/2112 33005KT P6SM SCT200
     FM201900 36005KT P6SM BKN110
     FM210500 VRB03KT P6SM SCT050 BKN110=

USA.gov is the U.S. government's official web portal to all federal, state and local government web resources and services.